GFSMA_2pvu_pres_129.txt.gz
Presure
185 180 177 201 178 162 167 186 177 149 175 163 167 171 172 172 174 171 175 177 182 141 185 144 174 174 173 182 177 150 175 186 171 197 168 178 198 179 188 180 184 176 174
160 167 180 182 163 195 167 161 185 171 164 163 165 162 167 167 171 166 170 147 171 181 183 155 164 179 149 124 166 174 193 182 181 185 165 177 203 208 185 183 188 182 176
160 161 170 192 152 152 187 191 172 172 171 152 170 172 172 172 160 170 138 163 161 169 178 146 180 182 123 126 194 190 118 178 161 189 191 166 171 150 175 212 173 184 184
222 170 173 177 179 202 162 157 146 186 200 192 166 169 170 199 174 165 165 164 164 167 158 162 176 179 119 123 195 121 165 190 172 176 162 174 163 173 170 152 189 192 161
204 211 217 216 191 202 179 177 173 177 141 148 156 151 184 165 160 149 155 163 172 166 150 169 138 178 199 156 165 126 169 149 166 163 175 156 142 151 160 166 163 197 161
211 209 220 207 235 230 186 221 184 193 204 175 164 182 162 198 185 166 162 153 174 155 153 157 173 176 121 156 166 185 138 138 182 166 157 166 169 176 187 139 183 177 196
218 216 220 216 142 216 219 214 222 228 203 178 173 182 170 198 141 157 168 144 124 153 166 158 163 152 182 183 173 177 183 107 171 184 173 197 194 171 184 158 174 182 174
222 225 223 226 224 215 184 222 243 263 228 207 197 167 153 166 160 177 170 159 160 155 145 147 160 154 160 151 148 142 148 160 172 150 169 183 194 189 195 155 171 196 184
218 216 224 209 216 219 215 226 235 246 233 198 172 194 201 181 184 146 150 157 168 158 159 176 150 167 134 122 165 162 149 207 182 184 157 198 136 164 191 177 172 198 183
221 224 203 226 220 133 213 240 185 251 238 231 248 221 172 192 195 188 166 156 151 161 156 172 156 170 148 151 180 142 172 166 190 125 160 179 180 164 180 147 208 150 166
255 286 287 279 296 296 305 337 176 313 293 236 239 263 224 211 209 185 186 162 165 163 170 188 166 157 152 178 158 166 170 190 192 156 175 185 144 189 167 192 197 158 173
299 309 348 333 339 353 227 344 348 357 326 368 306 246 248 227 193 157 190 187 180 180 172 187 185 166 181 186 166 159 183 144 188 171 170 153 175 171 165 161 181 164 158
344 332 348 337 320 305 301 249 302 304 274 197 354 328 259 236 222 207 187 196 201 177 178 194 172 178 159 142 151 155 146 176 165 175 167 164 188 152 159 177 175 158 165
304 308 291 291 280 285 279 267 275 265 234 319 351 351 297 261 233 222 210 191 178 187 181 191 170 183 173 164 173 174 171 179 177 173 167 144 155 189 151 179 164 152 168
312 279 269 265 261 256 254 266 266 280 252 295 302 342 352 272 265 244 217 211 197 185 197 174 186 179 180 177 168 171 171 156 171 159 165 183 183 172 144 201 140 152 226
273 270 258 243 261 260 249 247 252 258 275 291 289 315 329 361 279 251 249 226 215 189 186 186 179 183 182 180 172 168 173 170 180 181 166 182 186 200 209 239 158 163 169
291 253 245 241 249 251 246 250 259 257 209 270 285 285 322 345 354 312 258 248 230 216 207 198 195 189 186 187 181 196 183 194 200 201 183 191 215 190 236 197 218 204 224
250 268 246 241 243 243 238 238 263 276 194 278 269 269 289 312 343 334 334 251 217 232 234 217 213 207 211 204 207 205 197 181 184 222 171 210 191 185 225 219 236 204 197
245 255 257 253 250 257 252 228 135 150 272 267 131 133 255 281 308 291 318 323 263 254 230 221 229 230 221 224 222 224 218 211 204 214 192 231 200 219 245 228 231 242 218
252 246 258 257 251 228 239 254 253 252 252 160 135 209 256 256 277 241 315 308 312 277 272 255 253 229 226 221 224 220 189 190 159 199 226 149 209 159 226 187 231 239 262
244 252 238 242 244 241 240 236 252 249 237 247 259 252 250 254 261 142 196 301 269 178 249 197 256 255 245 238 211 205 218 209 203 230 189 188 143 247 203 292 314 265 239
251 247 251 239 243 246 254 252 251 240 205 254 253 260 243 170 142 261 263 269 253 159 225 247 163 248 251 201 224 197 155 199 226 227 180 237 252 242 289 304 266 271 278
250 250 246 244 250 240 231 250 239 252 250 254 251 218 222 258 245 251 210 263 250 258 256 257 247 222 249 214 238 160 234 245 167 243 191 265 245 240 291 270 267 261 265
258 258 246 231 236 242 239 243 253 248 246 242 249 240 250 249 251 262 191 253 252 259 210 247 258 241 213 262 261 232 263 263 210 269 240 270 275 261 256 272 255 255 252
263 258 249 245 240 243 245 244 252 259 262 248 247 243 262 254 255 255 219 258 248 243 150 251 263 256 240 243 244 253 234 187 250 161 263 259 260 254 263 263 246 249 260
285 263 263 251 250 255 244 259 252 253 235 248 241 240 269 258 251 305 250 247 263 250 245 246 249 214 245 262 157 148 154 155 187 263 256 265 253 253 264 252 254 248 249

GFSMA_2pvu_pres_135.txt.gz
Presure
163 192 173 160 141 172 188 197 192 134 154 172 157 180 156 178 149 168 156 153 157 157 164 164 164 167 168 169 171 165 173 182 198 154 180 194 150 169 166 161 184 198 191
198 182 166 179 155 173 168 195 163 194 173 153 149 174 166 163 160 157 155 154 156 167 173 162 167 163 153 151 172 175 173 176 148 141 191 126 129 182 186 174 183 185 185
222 196 172 170 167 168 192 158 189 164 194 176 182 164 169 145 169 144 175 157 157 158 165 167 167 170 164 172 163 162 135 170 176 165 197 165 145 171 166 163 175 134 182
206 212 206 205 205 212 174 178 169 145 142 146 149 166 171 165 176 158 170 134 157 152 188 164 167 161 157 161 166 169 142 157 170 181 177 153 127 162 158 172 173 187 168
236 207 192 194 214 213 199 206 197 199 182 153 180 162 146 151 181 137 162 150 154 165 128 176 150 143 144 143 168 155 159 153 143 171 169 171 165 162 161 163 161 192 165
228 221 232 226 225 223 235 229 204 202 217 194 165 167 152 171 186 156 207 150 143 158 142 137 165 141 160 146 160 146 164 175 144 148 162 184 168 170 152 151 156 129 192
213 234 208 218 229 225 214 221 225 214 223 236 234 207 158 181 120 182 150 141 173 172 118 160 155 154 159 139 161 130 136 157 190 173 182 144 173 164 181 152 146 141 171
226 228 228 224 216 224 233 227 222 219 216 225 235 227 209 171 167 175 145 169 182 165 168 157 187 149 144 151 133 135 171 147 148 155 183 157 151 132 177 188 137 163 153
231 235 237 235 226 220 230 223 236 241 235 228 222 236 219 200 167 180 162 155 162 159 168 154 158 165 156 158 160 142 134 172 167 161 145 132 160 159 168 135 135 159 177
229 231 241 294 295 273 256 244 222 227 234 241 260 271 267 263 200 137 164 168 141 175 193 170 173 178 186 157 174 179 172 153 184 159 177 140 163 159 160 181 146 157 159
314 326 318 313 308 115 304 303 258 252 256 245 247 223 243 231 228 253 185 138 130 174 173 180 172 184 158 172 189 133 169 181 150 182 140 172 122 169 163 161 157 159 145
323 311 321 331 340 341 333 295 115 346 274 268 268 190 265 266 270 260 252 193 174 168 148 171 207 165 187 173 179 186 171 174 152 148 155 168 186 153 156 187 182 171 156
314 316 276 311 200 301 225 321 335 343 349 337 340 351 340 263 286 328 343 357 361 206 183 196 165 179 170 175 163 170 193 161 179 172 178 168 169 175 147 160 166 157 188
307 298 300 303 289 294 301 227 313 143 324 324 334 314 329 140 362 292 334 169 189 191 191 179 175 209 193 173 179 177 164 164 163 178 156 166 152 176 184 176 166 173 184
297 293 292 291 269 274 295 295 296 305 316 321 328 327 333 314 273 307 216 323 323 302 342 140 203 175 177 179 164 196 168 179 171 155 173 172 181 179 162 170 168 182 141
295 294 297 339 329 273 300 290 301 307 295 303 315 297 290 277 279 249 292 298 228 307 257 288 191 187 189 183 173 173 178 162 176 177 182 170 178 164 180 176 178 166 167
304 303 331 319 310 298 309 279 281 273 271 265 271 279 276 273 268 282 269 287 304 305 310 275 233 250 221 194 181 181 180 187 186 173 170 170 178 180 167 208 196 192 186
299 327 315 307 303 287 285 278 275 267 263 266 266 261 257 257 265 264 255 291 288 289 295 280 307 225 234 261 205 204 176 176 178 193 178 183 180 190 187 183 184 181 198
327 313 311 313 310 290 275 276 279 260 247 249 258 252 237 257 248 128 268 285 278 273 286 279 296 306 336 250 261 218 192 185 180 200 181 183 181 185 184 175 183 171 183
308 309 305 321 319 293 275 270 264 246 252 248 242 251 240 258 251 261 274 273 266 268 270 270 277 291 308 285 347 249 209 192 195 193 187 200 182 182 171 184 189 184 164
301 307 310 281 308 290 274 267 261 252 250 242 240 240 240 250 241 251 266 265 267 273 261 269 264 274 288 302 333 248 251 244 197 194 192 190 189 193 193 184 188 182 183
291 287 294 321 267 282 267 265 253 263 256 245 240 243 257 251 230 256 244 257 253 262 263 260 258 258 270 278 294 311 227 246 259 225 197 192 194 193 195 193 192 184 190
283 284 287 313 300 291 270 266 249 251 249 252 255 253 250 239 251 235 251 130 260 225 252 126 257 175 261 230 196 289 299 255 243 212 227 219 173 211 204 195 186 194 194
278 282 278 287 301 293 276 267 256 254 249 252 257 260 242 245 243 237 250 232 260 244 259 262 261 256 260 253 215 267 221 293 265 135 261 246 235 215 216 194 171 201 204
264 266 270 271 280 291 258 272 262 258 246 243 242 239 249 244 243 241 251 239 255 238 257 245 247 260 256 258 259 256 265 271 273 288 287 256 162 235 229 223 212 211 204
263 260 259 261 265 278 268 299 271 262 252 253 250 246 245 243 231 231 249 254 249 250 249 261 254 268 274 269 270 255 258 260 270 274 278 270 293 256 162 155 230 222 229

GFSMA_2pvu_pres_138.txt.gz
Presure
196 221 178 197 183 172 179 162 195 177 152 189 159 152 160 169 157 153 173 157 158 156 178 160 151 181 167 153 153 158 165 173 173 178 170 181 179 189 200 216 133 203 143
191 204 190 227 187 188 180 185 174 173 153 161 156 164 157 138 169 173 152 162 155 159 152 157 182 163 165 147 160 156 167 166 166 167 182 166 171 174 156 180 131 184 209
192 218 205 214 230 205 205 179 192 168 170 181 157 163 166 171 175 150 151 158 155 156 157 151 194 154 175 167 162 157 152 169 154 167 172 174 128 191 190 179 174 186 133
226 193 210 213 208 208 244 229 180 185 197 174 182 173 164 173 183 171 174 156 172 140 167 125 171 157 153 159 158 166 163 141 169 165 166 171 175 179 173 148 124 150 176
222 230 231 234 219 216 218 223 254 186 176 182 176 213 195 167 163 155 172 171 188 186 161 160 134 157 136 163 151 166 155 153 155 132 143 175 150 171 185 146 164 157 153
208 214 228 219 226 245 241 233 249 245 193 206 202 190 199 157 153 176 175 163 174 191 176 162 149 142 150 177 155 150 162 139 124 138 167 163 187 138 126 164 170 161 157
204 200 216 230 229 229 225 235 243 250 255 254 197 207 192 167 161 194 158 180 149 155 153 166 162 171 172 148 166 161 147 158 135 154 169 182 157 168 171 165 168 168 154
202 202 209 226 220 215 216 221 230 228 235 254 237 251 238 189 175 173 157 161 154 160 183 158 150 173 172 125 168 155 171 153 159 155 161 195 153 171 161 142 187 190 166
196 201 226 228 222 226 241 236 259 253 254 250 251 237 250 246 226 210 178 170 174 180 174 165 152 134 156 177 151 188 176 176 175 120 153 144 159 163 179 178 152 145 191
197 206 225 229 247 284 321 340 337 328 324 246 293 263 244 251 250 243 228 234 191 158 166 164 168 174 169 171 165 174 172 184 157 171 158 184 139 156 172 138 153 159 138
225 231 245 193 296 340 334 235 319 320 318 324 324 316 327 259 249 257 248 220 169 160 183 173 133 198 142 171 168 180 160 184 147 171 185 170 152 149 132 159 160 175 138
220 254 271 296 325 250 322 327 301 321 327 167 330 249 282 325 323 269 247 258 254 234 179 173 183 194 181 157 124 172 164 193 173 172 169 175 170 153 160 164 175 189 171
253 259 280 305 323 318 321 314 178 309 309 304 312 326 338 351 355 353 236 238 245 249 216 170 173 204 188 168 177 126 176 172 184 168 170 185 171 136 171 178 136 162 177
254 271 277 314 321 316 312 312 318 316 289 295 310 315 316 331 350 359 349 345 225 232 242 241 193 175 172 174 182 212 165 164 168 186 166 174 165 192 179 140 177 175 160
271 282 300 313 318 310 307 309 323 322 310 294 299 304 303 320 334 341 343 355 358 355 235 256 199 233 131 182 193 196 182 172 182 183 167 181 190 187 185 183 181 178 179
286 294 317 333 316 305 308 316 332 336 292 280 293 294 313 319 327 326 372 353 342 319 314 315 314 233 208 193 178 178 192 190 165 168 170 182 182 166 159 174 181 181 199
293 313 351 330 312 306 311 326 319 295 109 306 282 305 298 317 334 327 309 298 294 288 284 286 295 141 316 134 197 191 184 174 183 184 164 177 151 167 158 177 176 190 167
308 361 338 323 314 316 329 314 308 303 293 283 277 277 267 274 291 279 279 273 277 266 263 266 281 288 294 308 244 197 184 193 195 181 182 175 181 172 170 172 180 171 172
353 343 339 338 339 333 309 319 299 293 289 281 269 258 260 263 271 264 264 259 264 274 265 250 285 278 275 300 295 236 234 203 182 182 182 189 191 178 178 183 178 177 172
355 343 326 312 306 305 305 325 328 287 274 268 273 264 262 260 254 254 257 252 261 262 249 266 275 270 274 263 269 265 321 217 198 190 179 183 177 174 181 183 179 166 178
331 309 307 305 307 297 313 298 320 293 262 269 260 262 246 244 254 254 251 242 257 251 254 272 263 268 262 262 275 279 311 329 299 204 192 195 181 183 178 167 172 176 169
307 304 302 295 293 298 293 308 307 280 267 267 263 245 253 253 251 248 248 244 250 262 258 146 265 261 257 259 263 263 269 300 321 243 196 190 191 182 198 201 180 178 179
297 294 291 287 288 290 287 319 276 282 273 262 257 249 242 243 255 237 247 250 242 244 240 250 262 253 262 253 248 252 268 263 281 307 321 213 209 193 192 192 187 181 167
295 287 277 278 277 282 285 296 267 293 271 258 258 252 247 255 253 250 249 247 253 255 236 253 257 253 248 246 250 242 250 253 263 238 286 311 277 303 243 204 196 193 194
284 273 272 266 267 266 271 283 285 269 277 267 259 253 244 243 235 242 252 268 256 254 251 248 238 256 247 235 209 245 134 135 136 257 270 160 293 310 285 230 233 259 221
273 270 268 266 264 264 264 264 266 278 300 270 264 261 254 251 251 251 236 237 237 248 252 254 252 255 252 256 261 255 261 250 251 253 254 255 264 278 143 299 309 147 244

GFSMA_2pvu_pres_141.txt.gz
Presure
186 176 181 178 171 231 201 200 195 157 171 164 160 209 161 167 149 175 164 170 163 169 162 154 175 163 173 170 172 168 158 168 147 161 170 159 173 170 178 189 187 178 197
175 170 169 174 196 222 217 222 194 215 220 162 173 156 181 162 170 183 167 172 152 156 161 155 168 162 188 169 160 148 157 162 153 182 162 172 163 175 163 179 180 180 180
169 183 177 172 168 164 184 224 223 198 204 184 201 191 201 172 156 176 159 168 203 148 153 177 158 160 149 178 174 160 137 174 171 171 162 157 160 147 172 181 181 182 217
177 184 163 172 182 187 198 215 217 225 240 200 216 196 204 188 169 175 170 157 172 173 171 157 190 195 185 150 168 162 157 178 168 172 165 172 175 151 165 169 154 160 153
195 167 167 163 169 199 205 201 217 213 213 243 198 214 238 199 185 160 168 158 173 180 190 170 183 176 162 181 135 150 139 151 143 165 170 181 154 138 166 173 182 160 156
174 186 177 182 181 186 205 202 206 204 233 219 243 251 229 224 176 170 168 177 159 172 171 162 171 170 161 172 168 145 160 161 163 158 155 178 163 144 169 161 139 173 160
172 180 184 195 184 183 191 199 204 224 208 232 237 244 244 225 248 211 178 186 153 171 183 178 179 143 169 164 161 164 163 142 143 131 166 146 131 167 177 167 140 127 123
195 171 186 151 186 184 193 196 198 212 216 235 235 224 254 256 225 242 232 181 198 163 166 182 165 174 164 153 184 188 170 165 156 162 180 137 159 174 166 172 169 154 158
172 174 191 184 192 185 199 200 206 221 266 298 325 343 325 294 277 261 242 206 213 187 172 168 185 163 180 184 166 163 171 155 148 153 132 160 121 147 163 167 149 174 164
187 191 174 185 182 184 194 188 251 273 321 340 346 348 351 348 314 295 279 252 239 184 196 180 189 177 169 157 166 185 181 113 155 164 159 157 167 121 123 135 168 147 113
190 183 193 192 193 206 212 259 271 317 317 340 339 324 330 333 338 338 296 298 254 246 237 186 172 192 213 172 188 199 163 181 164 185 176 119 136 148 166 149 189 150 159
173 204 180 180 197 214 250 268 311 305 303 334 334 255 314 324 329 330 330 329 287 278 266 193 187 183 181 204 176 162 188 157 152 134 155 141 156 162 127 163 155 192 171
196 195 189 217 241 245 265 273 310 297 304 336 327 314 310 310 310 319 320 324 195 334 301 265 202 182 191 192 192 171 158 193 173 130 158 165 165 157 174 183 179 133 189
191 92 220 248 243 255 265 305 306 316 361 344 322 312 309 318 304 318 317 321 326 330 334 327 204 236 185 175 189 179 158 173 175 178 186 159 179 162 192 188 191 155 192
204 200 242 248 260 261 285 308 320 367 349 331 317 312 317 334 332 317 303 313 317 313 330 311 271 199 202 190 184 178 176 197 177 172 201 171 169 181 190 168 167 168 137
242 243 262 263 269 271 309 339 362 349 335 322 314 319 327 330 336 292 298 301 304 311 322 332 346 354 293 259 272 231 186 184 177 187 187 176 171 176 160 182 183 161 153
237 284 275 274 272 303 341 373 357 337 328 320 323 318 314 316 296 223 292 294 303 307 340 323 322 334 341 203 313 264 231 227 181 180 205 184 179 187 177 170 177 169 162
258 271 271 281 310 380 364 347 340 341 349 344 313 306 298 281 273 295 302 309 317 313 333 304 311 324 326 327 315 242 253 266 218 201 193 201 194 185 194 179 181 169 174
270 275 286 312 381 355 326 315 310 308 313 311 303 294 281 278 276 275 291 309 308 306 291 282 282 285 282 280 283 300 265 293 263 239 235 203 180 192 177 171 174 176 162
281 286 248 332 367 321 311 310 308 306 310 311 298 298 285 274 262 268 254 277 267 265 259 258 260 260 260 263 265 269 284 288 303 262 261 208 196 186 188 196 174 184 171
288 293 330 380 324 311 307 299 288 300 311 305 297 291 279 264 264 251 253 259 253 252 247 245 245 250 248 248 250 256 270 280 291 289 294 303 266 193 184 135 163 180 178
285 304 388 329 306 300 297 295 294 288 300 311 292 276 274 264 253 250 257 253 250 247 252 239 248 247 248 245 247 254 266 272 278 288 281 282 304 356 334 194 192 201 179
293 390 338 304 300 295 288 288 291 281 316 305 289 277 265 263 258 261 259 263 239 247 246 244 254 248 241 242 263 260 254 251 267 262 266 280 313 341 358 232 193 192 187
293 349 313 297 289 285 281 280 275 280 297 283 303 275 268 268 260 251 245 257 243 255 254 248 238 241 245 247 247 256 251 262 263 235 267 274 273 296 327 346 297 257 200
356 312 300 286 279 273 274 272 269 266 271 293 272 281 255 261 252 263 249 258 239 243 255 231 243 245 243 243 246 241 254 247 253 252 254 261 261 269 280 307 328 284 248
319 294 284 274 270 268 264 265 267 265 264 264 282 291 266 262 258 253 245 248 243 240 253 244 239 254 247 253 247 234 249 247 249 246 252 251 257 257 254 269 144 244 278

GFSMA_2pvu_pres_144.txt.gz
Presure
181 184 186 182 176 165 182 167 167 164 175 191 226 231 210 176 180 180 175 160 181 173 180 169 162 165 169 157 177 175 169 183 159 158 167 154 163 168 174 168 179 185 182
173 181 173 175 174 174 175 187 170 168 171 159 165 217 209 197 176 183 185 187 182 162 174 162 168 171 171 172 154 170 176 173 161 160 173 159 153 167 168 175 169 180 176
172 179 183 171 163 171 192 189 180 166 183 182 188 190 233 205 216 246 170 154 176 173 166 159 188 157 167 156 170 180 165 169 161 165 145 174 178 172 167 165 176 180 181
176 164 184 178 179 183 168 167 181 177 165 155 187 198 200 221 212 225 231 172 174 173 163 157 165 164 163 170 181 166 196 177 154 170 162 151 168 177 134 158 147 178 180
187 162 173 181 193 167 173 195 192 176 183 177 206 190 200 200 237 197 242 260 185 181 169 170 164 172 163 171 158 184 165 161 169 168 144 141 170 163 171 171 155 164 158
159 174 187 182 185 197 166 176 179 161 178 175 190 192 197 189 213 236 208 239 263 193 181 170 176 180 172 160 165 162 181 162 170 114 180 171 177 168 171 174 167 167 141
183 190 187 187 187 186 194 183 176 187 194 191 194 195 186 201 202 229 237 197 269 278 200 180 168 180 159 170 174 165 172 169 105 160 187 155 166 133 137 162 189 152 139
194 193 184 103 199 174 187 193 194 191 159 210 185 186 190 198 214 225 234 297 328 300 242 197 190 178 173 179 182 173 173 184 158 161 172 173 176 149 155 115 160 172 152
150 179 193 190 189 179 189 179 191 178 172 193 191 194 208 202 216 301 326 332 356 358 290 234 188 205 173 172 179 175 183 172 182 160 163 166 178 143 165 168 161 154 172
191 193 185 195 187 166 193 197 174 196 198 192 200 215 213 224 274 293 330 323 337 359 332 236 240 200 188 171 163 192 181 178 166 170 195 160 135 146 169 144 155 152 179
190 187 187 197 176 188 198 193 177 204 173 206 219 281 277 276 286 289 329 323 342 336 341 262 310 198 191 182 198 171 173 179 180 181 126 118 196 178 151 139 184 174 161
186 200 186 188 188 194 190 196 205 190 218 282 283 271 277 285 292 342 339 355 340 325 320 333 242 253 194 184 182 183 173 169 201 191 178 157 188 180 160 182 159 124 153
188 194 201 192 171 196 208 208 213 204 248 291 283 201 292 309 375 363 346 340 191 312 315 323 332 241 253 268 185 191 183 183 167 165 181 207 169 183 176 130 171 127 173
201 205 194 200 239 209 245 211 239 251 284 282 292 311 398 373 361 345 332 329 324 309 303 323 332 334 333 250 265 197 190 182 183 172 129 163 180 134 174 176 170 119 129
199 182 203 210 198 207 206 240 248 274 287 297 342 383 371 183 340 328 319 321 328 328 317 319 320 324 333 340 248 287 197 178 187 186 206 179 190 126 124 141 170 169 166
215 209 217 217 211 233 216 239 251 290 295 384 367 356 352 265 325 320 322 332 339 349 329 319 321 318 322 329 343 237 250 196 193 200 197 173 179 207 124 190 163 157 151
210 210 190 208 208 240 234 244 291 294 393 354 333 332 349 335 321 323 319 319 322 305 291 290 290 297 311 318 324 337 272 278 213 209 198 191 204 206 169 182 177 188 174
225 218 235 234 231 266 297 297 295 404 353 325 319 317 324 325 311 304 300 300 297 281 277 289 293 294 303 320 322 331 340 344 279 247 192 190 190 215 174 190 185 171 188
189 230 223 230 277 283 302 286 331 360 328 322 318 311 310 310 299 293 287 283 280 287 302 306 314 302 313 332 322 325 333 330 332 272 222 195 194 223 202 186 192 199 171
218 227 240 251 272 309 291 308 374 323 312 302 301 323 321 289 288 287 273 273 273 299 302 307 297 305 300 305 308 306 306 300 296 300 261 258 194 189 192 207 183 182 184
227 240 240 264 283 295 287 351 330 309 303 294 292 315 309 288 288 273 273 266 266 270 273 275 282 279 279 268 276 278 274 272 272 276 289 292 226 206 205 203 198 190 179
240 241 275 275 308 283 297 350 316 298 290 288 287 312 312 281 280 270 265 257 252 261 252 255 256 258 260 252 250 252 260 261 263 275 278 278 282 292 212 196 198 197 190
250 285 282 296 300 293 363 318 302 291 284 283 283 317 303 304 280 272 258 254 253 241 248 252 245 247 247 247 242 250 255 249 252 263 273 276 283 290 292 300 313 333 298
263 298 285 289 281 302 339 297 291 285 278 276 271 294 304 289 275 266 259 252 248 241 242 233 248 245 243 242 241 244 245 245 250 257 260 262 274 273 273 270 273 301 328
278 277 297 283 292 346 308 287 281 275 270 274 267 265 294 298 274 268 261 252 249 247 241 256 237 245 250 251 247 241 246 246 250 248 250 255 272 264 267 274 276 284 295
294 296 280 293 337 312 291 281 271 262 260 261 264 266 264 280 295 272 264 253 254 248 248 239 252 246 235 237 256 254 246 244 247 248 251 249 254 263 272 266 270 280 256

GFSMA_2pvu_pres_147.txt.gz
Presure
176 169 175 176 179 178 182 179 182 168 183 177 191 169 166 171 184 198 217 218 178 175 168 169 177 147 167 167 164 171 166 158 164 171 161 159 181 173 153 173 171 142 168
177 175 180 181 168 183 164 186 183 182 173 173 193 174 161 176 158 174 187 208 230 189 181 174 153 176 158 168 162 168 172 165 168 175 166 174 148 166 172 169 172 171 179
184 179 158 160 172 174 186 179 165 183 185 201 176 187 182 173 156 160 188 157 207 221 173 183 178 162 174 157 155 185 152 169 161 156 167 141 164 164 153 163 164 169 155
177 169 175 172 174 179 177 172 175 168 197 181 172 163 166 190 184 197 177 158 177 185 215 197 163 174 184 163 159 154 163 167 178 159 176 175 168 179 162 173 133 126 171
173 178 180 184 179 181 181 189 189 189 182 185 183 189 189 183 197 170 194 186 207 199 174 226 226 168 177 174 161 162 157 180 153 180 183 186 164 169 163 136 157 177 165
171 182 183 183 193 185 197 181 185 191 187 184 189 198 196 194 190 187 171 194 211 228 227 216 206 243 169 159 179 170 164 168 186 165 163 186 178 164 163 167 154 175 164
187 183 191 189 185 181 188 195 189 194 183 195 185 172 196 196 164 202 204 193 213 222 212 207 198 205 238 166 176 168 173 162 170 163 184 179 171 160 166 170 139 158 181
178 178 176 175 183 194 193 202 185 198 183 191 179 179 185 196 201 199 199 196 229 212 219 230 234 212 220 199 172 181 172 163 175 174 170 167 164 149 194 125 167 149 160
175 184 181 187 177 178 181 182 192 199 201 191 204 187 190 199 201 204 211 211 218 231 225 251 292 292 272 219 196 182 184 175 179 165 162 163 167 169 182 183 135 133 204
189 190 188 181 173 180 183 198 175 197 200 202 191 201 181 208 216 223 245 216 242 293 284 296 289 283 235 325 327 194 193 182 188 176 174 164 164 140 170 129 168 144 196
146 192 182 192 181 199 169 183 190 201 204 189 187 198 205 228 232 212 217 226 303 293 294 294 308 322 325 361 233 310 208 192 179 183 178 166 162 165 169 169 186 172 144
182 192 192 194 188 180 179 181 207 203 195 214 202 217 237 199 225 217 294 308 302 307 316 347 361 352 353 347 357 262 358 205 192 182 178 182 168 176 174 195 169 159 163
186 184 195 176 178 194 198 201 207 194 229 222 250 250 237 221 299 270 149 324 372 388 377 371 360 349 335 339 338 337 286 299 203 192 176 181 173 185 176 150 173 175 186
188 183 185 186 176 189 195 205 178 233 225 211 236 224 220 275 327 283 115 369 373 362 351 341 337 339 331 328 325 325 266 340 231 210 191 185 180 175 185 171 198 180 135
187 184 203 207 217 221 214 193 242 232 209 220 245 224 299 323 415 367 345 363 356 345 340 332 325 328 328 318 313 313 326 231 243 225 208 202 194 178 186 189 176 184 130
213 199 213 239 240 238 236 239 209 218 236 223 201 289 317 400 347 333 338 353 341 331 328 327 323 323 327 323 316 260 315 329 257 209 227 215 200 189 191 171 187 183 163
226 231 180 231 212 222 236 224 229 219 234 258 286 308 395 339 328 329 333 341 332 173 325 323 320 325 333 332 328 326 325 329 229 233 225 213 196 202 190 189 154 189 185
226 181 228 224 211 229 226 232 234 237 249 298 296 351 340 326 322 322 325 313 311 312 307 314 315 320 312 311 310 312 316 315 318 242 225 188 197 217 204 181 191 181 133
238 227 202 223 233 229 237 229 242 247 251 310 306 352 314 307 307 329 302 303 303 297 294 288 282 281 283 285 289 294 299 307 317 313 253 213 195 199 203 193 187 192 187
221 232 236 226 219 231 236 258 243 248 288 162 361 322 303 299 299 317 294 292 287 284 285 102 280 281 290 298 286 291 292 298 306 308 314 250 243 215 196 192 191 184 186
220 228 229 231 246 239 252 264 265 310 315 304 345 304 293 295 299 321 288 285 278 272 283 292 292 300 289 291 297 308 303 308 316 321 324 324 294 251 254 152 197 194 185
227 238 231 224 242 252 243 267 322 316 306 352 310 295 281 294 293 323 283 278 264 259 272 277 268 268 285 299 281 278 288 294 295 302 303 302 296 304 262 235 233 175 182
233 228 233 240 244 293 294 269 309 295 307 328 297 289 277 278 281 313 279 274 265 264 255 258 261 254 258 267 269 275 274 274 273 273 271 274 275 277 289 293 294 246 278
232 233 226 245 259 306 285 301 290 301 357 307 286 281 274 273 274 303 291 268 259 264 253 253 255 251 255 252 256 258 256 253 255 252 251 255 265 263 269 277 282 287 285
241 243 263 264 261 255 289 293 294 301 331 296 281 271 267 269 267 277 303 277 257 263 249 247 244 244 241 248 251 245 242 245 246 249 250 250 258 259 261 258 268 272 273
219 262 281 274 282 308 293 287 290 329 297 287 271 264 260 257 257 262 285 286 259 256 254 244 253 239 239 239 243 241 247 242 242 242 250 254 251 252 253 254 255 258 265

GFSMA_2pvu_pres_153.txt.gz
Presure
184 186 189 183 182 182 163 163 174 181 193 188 177 181 163 172 182 188 195 179 171 190 178 166 169 169 177 159 170 182 170 178 167 162 173 167 159 165 153 161 156 168 157
159 181 187 183 166 180 183 170 169 177 186 179 182 166 189 181 182 193 183 163 195 180 173 165 180 169 175 171 180 175 159 182 154 167 163 157 173 174 170 151 164 166 181
187 189 185 175 171 174 171 170 170 173 171 175 170 175 200 166 189 192 189 206 201 206 189 192 208 161 167 179 171 186 162 172 161 162 162 156 161 154 170 168 158 171 162
184 169 172 164 173 179 181 184 181 177 154 156 189 170 171 180 181 178 185 187 192 187 186 204 189 180 174 168 167 165 220 166 174 160 168 171 165 161 159 177 160 176 135
185 189 176 183 169 173 180 175 167 178 181 181 182 183 161 190 176 169 188 175 178 181 191 181 199 198 193 183 174 175 174 171 154 163 160 164 165 161 162 159 162 152 160
187 189 187 180 175 177 173 178 180 186 178 174 179 171 175 169 176 177 187 187 178 168 191 187 199 202 208 211 195 182 174 163 211 181 171 170 152 162 156 166 155 152 147
181 175 161 190 189 183 183 171 177 178 183 178 179 183 182 182 181 200 188 182 180 179 174 90 200 207 196 204 229 194 190 168 183 218 180 173 168 170 167 156 177 165 166
183 142 174 163 155 172 163 180 179 181 182 183 174 180 178 193 186 185 191 189 184 195 175 200 203 171 205 197 220 215 206 223 179 184 208 181 169 172 171 171 170 156 179
183 172 177 181 174 174 183 181 175 178 180 178 179 182 181 188 183 184 191 192 192 197 202 210 199 221 226 185 223 234 250 238 209 211 191 255 183 176 166 173 165 159 175
173 174 173 172 178 181 180 181 174 179 174 181 181 182 184 185 190 190 185 196 199 219 206 203 224 228 219 248 244 201 256 263 162 227 205 199 230 186 182 174 162 147 147
169 174 173 173 179 182 184 177 176 181 180 172 183 173 180 189 188 189 199 201 220 215 208 219 256 252 232 257 244 237 255 234 278 239 153 276 182 196 194 178 183 178 177
181 172 175 183 184 183 177 175 175 185 192 190 189 194 193 200 205 208 208 215 215 205 234 223 215 237 253 240 244 238 259 320 385 433 345 312 236 199 223 196 178 179 160
183 179 183 177 165 162 192 178 180 191 194 199 197 196 201 206 204 207 222 219 231 219 217 244 260 231 237 95 222 394 389 379 368 378 438 381 321 322 207 217 199 189 181
194 192 184 191 191 191 184 191 191 196 189 196 205 193 204 207 206 222 233 227 246 231 266 250 255 247 374 377 369 365 367 370 358 374 374 404 351 288 230 229 236 186 194
167 204 204 203 195 196 187 192 191 195 192 208 208 224 223 216 229 225 227 237 211 251 212 275 304 392 365 343 350 346 368 361 364 370 378 374 379 293 318 220 210 230 201
199 204 203 217 211 202 222 206 185 195 220 232 194 208 234 227 239 203 202 236 239 266 268 294 374 352 331 365 336 347 342 347 344 343 354 359 381 296 312 332 229 246 206
206 205 207 197 212 218 220 225 224 222 191 185 216 237 242 228 218 219 237 253 256 275 280 377 341 323 354 312 200 325 331 325 338 327 331 334 341 328 334 327 273 213 240
211 203 198 194 205 200 192 211 222 217 236 215 182 234 228 238 222 226 239 239 264 284 376 335 317 342 322 307 311 322 322 321 324 326 322 323 324 322 325 314 284 288 205
212 207 208 211 203 217 227 228 225 180 238 222 196 251 222 233 229 235 240 262 277 380 341 315 314 304 299 295 258 293 304 319 322 322 318 320 322 314 315 327 286 329 259
210 210 200 219 194 219 228 193 240 212 219 225 228 231 239 237 251 246 259 278 392 346 319 300 318 290 286 284 280 279 285 298 300 312 316 313 311 314 311 311 313 322 308
213 215 215 177 221 221 219 226 226 219 239 224 229 239 237 240 250 252 284 340 370 325 306 291 321 285 279 275 278 277 270 277 288 296 298 302 299 297 300 298 302 309 323
217 222 228 224 219 221 230 236 230 236 225 230 228 231 237 243 244 297 301 372 341 306 298 284 299 280 274 267 288 292 270 263 269 274 280 284 291 287 287 287 293 296 308
235 228 221 222 228 232 230 231 217 226 223 229 242 225 251 258 271 280 301 379 321 296 284 280 300 278 268 267 267 281 272 281 280 269 268 271 273 278 280 286 286 297 304
239 232 235 230 230 223 223 223 240 228 239 240 238 253 258 262 284 270 295 370 308 293 280 276 302 278 264 255 259 261 251 266 275 276 266 260 265 268 270 277 283 285 296
231 228 229 226 225 228 227 236 238 237 235 251 249 258 257 286 277 277 302 352 295 288 282 277 274 286 269 254 247 261 266 274 274 265 264 275 280 277 273 269 278 278 289
247 245 236 236 234 236 237 230 248 253 247 251 274 268 284 269 276 273 322 326 292 279 273 273 264 295 272 258 244 254 266 251 255 257 254 251 254 260 263 272 280 287 285

GFSMA_2pvu_pres_156.txt.gz
Presure
200 188 192 176 176 184 186 188 174 172 179 180 176 171 183 186 167 173 174 169 174 182 171 175 191 184 168 174 166 167 162 160 189 154 165 158 154 151 170 171 155 155 161
199 196 185 178 173 186 181 178 182 161 166 173 176 183 183 174 184 177 187 173 193 187 188 195 201 186 194 178 192 171 180 160 167 169 196 179 155 157 146 170 172 171 171
195 188 185 184 139 166 185 184 168 176 176 174 155 166 171 167 180 191 188 163 165 182 187 189 184 196 200 192 181 188 212 159 172 163 166 162 179 164 153 162 162 172 170
168 192 191 182 189 186 175 174 169 173 183 181 184 192 189 165 171 155 169 181 184 183 189 158 193 186 188 182 197 192 193 178 188 162 171 162 169 162 165 162 160 160 162
181 195 193 190 188 147 187 179 168 181 166 172 180 179 165 168 183 167 177 187 178 179 165 188 187 187 191 189 187 200 192 181 194 185 185 160 174 171 158 163 171 165 160
167 184 190 151 147 190 185 167 190 191 188 181 178 180 178 181 168 169 184 178 181 185 184 176 184 189 190 183 191 163 195 200 187 182 224 180 173 171 172 168 157 177 176
162 189 172 173 166 169 156 149 144 153 163 156 181 185 188 185 182 183 183 168 169 187 191 188 186 189 191 201 198 185 206 195 189 206 194 182 180 180 176 179 166 161 179
185 188 157 170 187 191 190 186 180 175 176 177 174 181 182 182 182 184 178 182 182 181 189 189 189 195 195 194 195 196 200 211 173 194 214 217 257 196 183 163 181 165 165
160 180 172 181 174 175 180 181 176 179 180 173 185 183 180 178 175 180 178 184 178 193 191 191 195 190 201 212 215 211 218 225 229 219 233 240 248 195 202 192 169 164 160
180 179 189 178 172 182 181 167 173 174 175 173 166 176 172 183 185 185 187 189 193 194 199 206 204 207 211 209 209 210 221 227 231 237 232 213 171 236 233 188 197 158 175
184 180 192 166 181 185 180 179 180 190 179 182 184 188 180 174 185 191 190 195 194 204 195 203 203 207 205 213 214 210 228 237 249 256 225 242 232 252 267 284 168 222 188
181 190 174 170 182 149 179 179 178 185 187 182 165 172 184 187 189 184 191 200 195 207 209 214 213 214 234 237 210 247 228 228 222 232 228 245 263 189 169 161 237 167 225
160 168 182 187 175 187 194 187 186 152 184 193 189 189 192 193 195 193 191 196 201 198 211 216 224 214 239 260 253 218 218 218 222 293 324 412 404 392 391 399 191 185 175
205 189 186 186 176 154 175 182 183 183 201 209 207 206 206 201 203 204 201 206 205 214 226 246 197 250 240 244 234 236 230 300 374 372 362 360 363 363 374 382 401 283 213
199 210 194 200 177 193 197 195 194 196 194 208 213 218 211 230 225 222 225 231 227 243 201 206 238 223 236 265 286 302 382 358 346 365 343 345 359 377 380 355 370 406 291
201 194 197 199 191 193 193 188 193 200 203 212 217 204 208 208 207 219 196 225 207 235 220 237 236 268 271 278 347 367 348 354 330 326 328 337 354 371 384 383 349 347 210
192 193 192 203 208 212 198 167 208 209 214 188 213 219 212 221 225 222 233 234 218 239 232 257 250 268 289 381 345 336 335 323 319 328 322 328 345 352 364 388 359 379 321
209 211 201 197 208 207 199 168 206 209 187 211 171 214 200 229 226 225 234 228 241 227 239 241 260 277 300 350 328 329 309 306 299 301 328 327 339 340 351 361 367 375 296
201 198 196 205 214 211 210 208 209 193 206 215 227 217 221 233 225 237 230 242 226 240 243 250 270 292 357 321 318 303 294 297 286 291 317 325 334 331 334 345 352 303 303
226 206 193 210 221 203 206 221 215 219 195 216 218 221 226 223 226 229 236 226 236 235 252 268 263 349 338 308 317 294 287 285 291 283 290 307 318 328 328 331 342 292 304
244 247 241 236 241 227 228 213 219 217 218 232 218 222 231 225 234 240 229 231 236 255 263 237 303 377 318 299 316 287 280 279 269 277 279 297 305 308 309 327 331 311 301
257 259 247 244 239 244 226 224 226 229 231 229 232 231 224 239 235 230 227 235 250 253 249 277 301 357 312 289 300 280 275 282 281 278 270 274 295 304 299 299 312 326 329
263 253 246 248 240 232 232 240 239 239 237 235 230 236 235 229 232 230 240 252 242 262 262 313 303 339 306 283 291 278 270 269 284 286 281 269 268 278 285 292 288 293 297
270 262 252 248 243 242 239 237 238 238 238 240 235 232 231 224 246 239 247 238 265 273 283 293 327 331 305 282 290 276 267 263 271 257 266 274 271 274 266 273 281 283 282
287 271 255 250 248 241 240 234 237 236 234 229 228 227 250 234 228 247 250 258 274 272 272 310 351 328 299 286 270 281 266 260 257 268 254 268 266 256 267 272 270 272 276
252 280 268 259 253 249 247 242 238 245 248 247 242 245 236 241 264 260 263 257 276 265 285 307 340 312 287 282 269 289 269 261 252 260 251 275 270 273 257 258 259 265 269

GFSMA_2pvu_pres_159.txt.gz
Presure
190 185 179 194 200 201 196 189 159 177 183 179 180 182 167 170 182 179 176 182 183 181 187 178 183 182 187 185 177 169 188 174 163 160 176 169 167 157 165 163 174 164 151
193 159 178 193 181 198 175 187 186 173 172 176 154 181 181 175 179 180 169 168 170 170 163 184 182 162 168 191 183 196 204 183 185 194 167 167 168 173 154 154 169 169 169
167 164 166 165 173 196 196 180 187 179 181 184 176 185 152 160 163 171 159 177 156 186 189 186 180 173 171 171 190 184 186 208 190 184 176 192 165 167 163 183 157 154 162
174 164 158 175 153 154 191 174 173 168 169 172 173 175 173 173 180 173 173 185 186 172 172 185 190 188 190 178 168 196 183 185 198 186 189 178 184 179 172 160 173 165 158
163 149 173 153 161 191 165 171 180 167 167 188 168 174 178 180 177 172 180 173 171 172 173 182 173 174 173 177 179 181 184 191 194 186 202 182 193 185 193 173 166 164 167
169 157 165 181 179 192 167 190 160 154 183 150 184 176 183 186 180 146 162 180 184 189 188 183 181 185 185 172 184 189 192 165 189 198 203 201 200 186 182 200 169 171 170
193 173 180 195 185 200 187 185 171 155 188 181 184 187 186 174 171 179 179 154 181 190 185 182 185 183 179 172 186 177 188 192 192 193 201 209 200 182 174 185 197 178 163
200 194 200 188 190 191 171 178 186 174 188 181 182 183 171 175 182 172 175 176 182 179 183 187 186 178 179 186 191 195 197 203 205 215 217 211 226 227 188 182 203 201 194
199 144 175 198 167 128 157 173 181 155 187 183 182 182 173 173 182 164 181 187 180 183 176 188 191 191 195 193 194 196 199 200 201 207 208 222 220 217 232 231 190 195 192
191 192 181 201 183 191 187 180 154 164 175 150 182 181 170 170 180 177 159 187 188 181 182 197 191 195 193 194 197 196 194 194 202 203 202 205 212 217 230 233 240 203 193
194 185 171 193 188 183 192 180 182 186 181 178 183 177 182 188 181 181 187 179 191 190 191 189 193 202 195 201 204 204 196 197 199 203 214 223 220 234 230 242 261 245 251
197 188 180 177 192 169 181 174 175 183 178 179 177 178 143 181 150 197 198 196 200 196 198 200 202 202 209 211 205 213 213 229 238 227 212 218 244 247 252 270 266 218 232
194 188 194 184 187 179 182 188 194 191 183 189 189 189 183 187 183 197 197 206 202 206 216 220 218 203 214 225 212 220 211 242 237 248 240 232 253 257 264 264 269 269 264
205 201 203 204 199 205 195 193 188 198 194 207 188 191 196 187 198 192 192 197 196 206 210 212 220 209 230 220 239 249 251 257 250 241 292 410 411 405 403 394 389 385 375
198 196 205 199 202 202 201 202 198 193 197 201 187 192 152 202 198 176 199 203 211 217 230 214 227 217 244 242 247 250 257 239 273 315 393 360 354 351 353 363 370 376 361
181 188 186 193 184 188 192 195 200 193 192 197 195 182 197 172 208 213 216 210 192 211 220 224 216 228 233 237 241 234 258 267 302 359 345 342 337 332 335 342 336 347 358
199 200 194 202 193 202 194 193 202 206 208 206 197 209 197 204 204 166 225 213 204 219 226 216 222 229 231 239 258 257 259 289 377 344 340 316 310 310 322 334 332 339 377
205 207 211 209 219 224 202 224 200 190 195 199 200 198 197 207 203 208 200 205 222 212 215 221 226 233 239 252 263 256 264 299 344 325 312 308 297 303 321 332 328 348 360
227 224 221 225 231 230 247 257 241 234 224 205 206 209 205 195 209 230 222 221 220 212 227 230 231 237 243 254 253 260 321 351 325 322 303 295 296 295 304 326 337 338 346
279 264 277 243 257 263 264 253 251 243 230 224 225 217 228 230 230 224 224 224 210 234 238 234 238 241 241 243 264 276 279 333 311 311 295 284 294 282 306 322 331 328 340
293 296 290 278 276 275 255 255 224 249 241 238 238 236 242 245 247 242 237 229 236 231 238 243 230 243 238 249 269 291 302 319 303 300 292 285 289 281 287 317 317 320 326
291 286 295 287 277 273 264 253 236 245 243 248 247 249 246 245 239 231 237 241 235 235 241 226 243 247 255 267 240 300 416 311 294 292 281 281 282 278 271 309 306 307 318
387 302 299 278 279 274 263 267 261 250 246 249 247 238 242 239 239 238 233 234 229 232 238 237 249 253 255 264 277 315 405 306 287 286 278 275 288 278 271 271 292 296 304
398 405 309 333 285 267 273 257 254 256 255 249 250 243 239 239 235 233 234 227 234 240 235 250 252 253 247 258 288 314 393 306 282 284 275 266 273 269 269 260 278 281 288
386 374 315 294 327 339 276 281 266 258 253 252 239 238 239 233 235 227 229 241 231 244 245 252 249 249 241 258 269 337 328 296 284 285 273 267 261 267 268 279 257 258 281
375 295 287 273 269 270 295 265 261 264 245 239 241 242 246 241 245 249 239 237 238 246 247 230 253 240 256 261 277 351 315 292 286 270 277 262 262 258 254 263 267 266 266

GFSMA_2pvu_pres_162.txt.gz
Presure
173 180 166 153 172 168 152 171 193 188 186 173 191 191 170 162 191 174 189 176 173 174 178 181 184 186 185 180 188 173 173 178 192 188 185 164 167 163 171 154 161 167 175
170 170 176 158 156 164 159 160 165 172 132 139 178 178 151 184 182 177 174 172 170 179 180 180 162 169 173 175 191 191 190 194 167 180 188 195 193 181 163 160 164 177 162
189 174 187 163 191 177 171 155 138 149 167 192 182 135 189 171 167 180 175 176 181 169 173 177 179 166 189 192 190 173 183 182 178 181 187 179 183 209 189 171 162 155 154
171 171 162 172 170 198 180 155 191 157 189 166 191 186 177 147 177 156 146 171 166 163 170 176 174 179 180 160 167 179 180 185 173 183 180 173 182 199 185 189 189 181 166
176 190 169 170 169 172 199 182 172 171 171 183 188 154 166 162 188 175 185 183 171 174 178 174 180 184 180 178 174 187 189 186 179 186 184 178 189 183 183 199 181 189 195
169 185 177 177 174 169 160 154 182 191 183 198 174 177 181 189 169 183 182 179 177 180 178 180 173 164 185 168 173 189 189 185 189 188 191 176 182 194 192 202 202 176 181
178 217 208 209 169 183 191 174 196 196 164 180 197 177 162 176 177 182 180 183 175 181 177 174 181 183 182 183 187 181 185 184 181 193 181 183 199 201 177 202 209 204 186
205 210 194 208 198 190 201 185 175 193 180 178 143 150 183 168 172 190 183 186 187 181 179 181 174 180 181 178 184 174 190 196 195 199 201 195 198 205 196 208 206 219 219
199 152 193 202 193 192 200 178 186 191 186 190 163 185 180 179 176 180 184 182 186 166 180 179 185 153 176 172 175 193 192 196 192 198 203 200 204 199 194 210 210 211 214
210 212 203 193 199 191 184 194 187 185 188 176 182 180 161 171 176 179 169 175 178 176 174 183 186 183 187 188 195 190 194 194 194 197 200 205 205 201 214 223 220 219 217
197 213 185 201 193 190 187 184 192 185 192 180 185 176 177 180 182 188 188 182 180 183 166 186 143 175 180 208 197 196 205 209 208 211 193 214 213 210 214 212 207 224 237
202 209 180 203 186 200 203 184 191 193 182 181 188 188 186 180 180 190 188 192 192 193 193 194 192 192 195 192 204 197 191 205 210 208 209 209 221 233 240 235 234 242 246
204 191 203 207 190 193 197 192 196 193 149 182 183 182 187 197 194 197 196 204 201 198 203 190 209 192 208 203 212 225 215 205 224 219 229 227 234 241 253 243 243 245 272
200 204 196 196 195 198 196 202 191 196 190 189 191 190 187 191 197 192 194 204 203 174 209 166 199 211 203 197 218 211 171 218 226 242 246 245 249 255 261 278 298 399 376
205 202 196 182 194 197 191 191 192 218 181 183 207 178 191 193 190 195 199 164 204 225 207 209 208 227 210 209 216 233 211 219 233 245 243 247 256 266 293 397 368 369 364
196 200 205 195 211 198 199 194 195 200 193 195 186 197 187 192 198 186 165 192 224 195 181 201 198 205 197 201 219 221 223 237 234 246 244 256 270 292 386 346 342 326 329
214 206 205 204 204 203 220 202 192 192 195 197 205 195 202 200 194 212 216 220 232 213 200 220 211 201 202 224 230 230 242 230 250 245 252 260 285 385 347 330 314 309 309
200 209 212 214 204 203 206 211 201 212 204 215 211 202 213 217 216 214 200 242 235 237 227 239 223 230 228 227 248 241 231 232 244 243 264 264 276 363 338 304 300 300 308
212 214 217 218 219 223 216 214 217 212 207 214 208 217 254 242 248 237 239 236 233 238 238 229 227 229 226 242 243 231 245 243 241 261 269 263 312 342 314 294 288 303 302
233 239 234 238 238 241 241 234 222 244 277 260 260 261 251 242 219 242 241 212 238 230 244 238 233 245 241 241 237 239 240 241 257 272 247 267 366 325 301 286 293 292 294
295 317 309 308 303 297 275 297 285 289 281 273 266 254 248 250 252 242 243 251 254 247 242 248 240 246 242 236 237 237 235 253 261 262 257 275 313 314 294 287 292 290 289
343 442 356 342 307 297 287 281 276 276 277 267 255 176 253 247 248 243 241 245 241 240 246 239 243 237 240 230 242 233 235 252 244 261 266 279 342 305 285 279 281 286 299
365 387 395 418 438 336 333 268 272 281 279 264 271 272 260 255 247 244 242 243 240 242 239 238 237 237 237 235 233 238 249 247 264 244 268 294 324 299 282 277 282 280 272
341 357 398 401 413 407 348 308 280 278 292 293 292 269 260 257 252 253 249 246 242 240 244 238 231 236 238 235 231 249 248 247 251 260 273 378 315 294 281 275 269 274 268
319 336 331 337 344 394 292 289 277 281 270 293 261 254 259 259 245 254 250 244 246 238 238 231 230 235 241 228 246 246 249 263 244 264 278 364 308 285 283 274 270 262 267
295 303 320 317 310 316 331 290 269 283 272 309 265 271 272 255 257 251 250 240 242 248 232 239 235 234 233 242 247 240 253 242 250 271 291 345 302 285 281 284 271 267 263

GFSMA_2pvu_pres_165.txt.gz
Presure
180 185 184 177 179 162 165 184 170 179 171 171 166 172 137 175 173 187 183 181 173 175 176 171 160 178 172 170 172 182 184 179 169 168 166 168 192 180 177 177 161 145 157
181 187 183 171 171 173 163 188 184 169 193 184 164 199 176 153 160 178 160 160 161 178 180 178 171 170 165 172 169 170 164 170 177 188 192 190 170 177 189 189 189 179 167
174 168 178 192 179 189 172 183 156 180 180 196 181 162 155 181 196 154 138 161 179 181 172 162 181 181 180 174 177 174 154 169 181 176 187 177 180 184 194 182 181 183 196
182 179 179 171 171 179 181 199 204 176 179 184 170 197 174 191 180 192 173 162 158 141 166 177 173 174 167 167 173 174 170 180 183 184 181 170 174 180 169 172 177 180 175
179 184 174 184 179 175 169 188 214 201 195 179 188 174 182 188 192 170 179 187 183 184 158 184 181 185 183 184 183 177 189 175 175 170 177 171 173 189 191 182 184 187 174
182 182 182 173 175 172 175 181 220 202 193 192 191 183 168 193 179 193 157 138 165 187 179 179 180 177 181 180 180 179 177 173 188 188 186 189 188 187 186 187 189 186 196
176 185 192 170 167 187 182 185 219 202 201 187 191 141 184 188 164 151 148 192 170 173 164 174 180 182 180 183 183 176 172 177 183 185 181 181 182 193 189 196 205 201 196
191 186 196 177 178 192 191 187 204 193 203 196 190 187 178 182 182 180 182 176 179 179 175 167 177 183 190 173 186 187 185 181 188 180 184 180 182 193 194 195 199 201 205
203 197 191 198 192 181 191 200 201 207 186 200 196 183 172 187 184 184 185 184 182 181 162 182 183 186 176 175 180 177 177 185 182 181 172 172 187 186 201 197 203 200 213
218 198 214 203 200 207 193 203 193 196 187 191 185 195 184 187 191 190 179 174 178 173 172 183 179 181 184 188 190 180 183 171 183 188 191 191 200 193 207 204 199 215 221
205 216 198 208 188 213 195 200 196 195 184 198 198 192 196 183 183 182 180 191 186 183 181 178 178 180 173 185 192 190 187 188 196 196 215 196 198 211 211 213 218 217 233
191 200 204 204 201 208 191 202 196 200 195 189 192 188 179 204 193 189 193 195 182 183 184 185 183 188 191 191 200 199 211 206 210 207 220 204 211 234 223 198 206 231 228
221 203 192 209 214 204 215 202 201 204 188 199 184 190 192 182 191 179 195 193 191 197 194 188 195 188 192 203 204 198 202 203 212 218 204 217 199 192 210 209 236 232 208
220 207 219 245 224 201 206 175 191 200 198 208 203 197 198 191 189 186 188 185 185 185 195 202 204 201 195 210 195 166 200 201 224 189 198 197 206 223 223 232 229 249 232
193 207 200 209 205 209 226 235 213 199 201 193 203 190 195 185 184 197 197 191 192 180 180 184 190 194 191 196 199 199 205 192 204 222 232 203 232 231 233 228 254 247 254
198 190 205 206 208 203 216 204 207 205 208 195 209 181 179 183 191 198 189 180 185 189 190 197 191 180 196 192 203 235 201 240 229 233 228 194 238 236 246 255 251 259 281
221 225 222 228 216 228 216 203 208 212 207 206 220 212 216 216 202 205 209 202 202 205 209 211 202 199 211 218 253 248 244 245 227 161 238 241 237 250 254 255 247 283 259
250 246 247 239 227 232 220 220 209 210 208 204 200 212 209 218 205 215 202 206 193 204 199 213 210 143 235 238 258 237 239 229 227 238 245 236 252 253 258 250 282 258 268
252 246 246 240 242 238 235 227 223 231 219 216 212 206 201 198 209 211 209 213 205 207 210 204 259 257 250 240 233 234 236 242 247 247 250 247 253 245 251 273 267 263 360
251 253 256 268 274 271 273 282 285 258 238 234 232 222 218 218 220 216 217 223 225 225 245 257 244 246 241 239 205 238 252 244 242 252 245 250 249 251 258 274 258 270 343
265 283 297 299 289 305 296 293 298 301 301 290 279 274 282 269 261 260 262 260 255 250 248 251 242 240 240 246 253 250 238 245 246 244 249 242 244 246 262 271 250 284 333
269 268 321 369 353 403 404 410 413 328 281 319 287 287 281 282 279 288 288 280 280 255 256 250 248 247 241 246 240 235 242 245 240 249 240 241 242 253 277 264 265 311 318
331 380 351 350 361 369 355 374 385 395 437 329 299 304 284 286 278 269 266 262 261 257 247 245 239 243 240 240 245 249 239 240 248 244 231 242 245 262 250 246 269 334 311
377 356 327 332 330 327 324 326 387 376 381 372 319 298 291 282 271 265 255 260 254 250 262 255 251 246 243 247 244 239 243 240 236 240 241 241 251 260 255 247 281 355 303
351 336 311 319 326 315 315 321 363 385 349 365 324 332 312 300 292 277 283 297 289 274 265 250 248 249 242 241 239 238 244 235 242 232 240 253 260 242 274 265 283 342 297
345 320 303 305 301 292 298 318 331 348 343 321 306 302 279 273 265 264 255 274 257 247 252 255 253 252 248 259 248 234 229 240 238 247 256 254 227 267 252 272 357 354 294

GFSMA_2pvu_pres_171.txt.gz
Presure
185 173 178 170 179 183 183 180 170 172 169 178 201 193 189 168 184 197 192 185 169 182 174 172 172 165 151 163 171 171 167 168 176 178 177 176 179 169 183 165 173 163 169
170 179 188 172 165 179 169 175 172 172 181 186 189 197 201 179 167 178 193 188 198 191 181 176 156 172 174 181 163 146 167 164 172 164 171 167 174 155 181 183 178 177 171
186 141 192 172 174 166 178 187 174 190 190 184 191 199 197 202 178 169 199 203 188 180 186 164 183 169 170 186 167 165 161 159 164 178 157 170 165 165 172 174 172 171 169
165 168 180 194 182 179 187 194 187 197 196 189 193 193 189 206 189 194 199 204 194 189 183 176 176 178 165 178 170 157 174 163 157 162 178 176 164 173 171 174 176 171 178
172 170 181 184 177 195 193 205 198 200 199 188 189 195 187 195 188 197 191 204 199 192 186 176 184 183 180 177 178 173 174 168 175 180 177 175 175 173 174 176 177 182 180
171 184 194 189 193 197 200 202 200 211 202 194 191 190 194 196 206 205 189 198 203 195 192 190 181 179 174 178 185 173 173 171 171 167 166 173 178 176 181 178 174 173 185
194 172 198 189 191 203 190 211 215 202 196 182 192 189 195 200 193 202 196 193 199 195 192 190 194 189 176 179 177 169 170 176 174 173 170 168 166 168 171 175 180 184 182
191 190 160 170 188 202 217 200 197 182 164 191 189 200 199 187 186 193 201 191 197 195 195 191 191 191 185 178 179 178 178 176 174 177 178 182 183 183 182 181 182 173 181
76 81 181 187 197 194 174 168 195 197 213 179 195 184 184 198 191 188 204 194 192 200 193 192 179 188 184 182 184 183 185 182 178 182 181 181 183 161 176 183 180 188 181
172 180 182 175 188 173 179 183 178 192 198 205 201 184 192 185 193 191 193 197 189 205 192 193 187 194 191 192 196 189 182 183 183 185 183 187 178 128 178 179 184 155 178
187 183 194 193 174 180 187 188 191 188 188 200 204 193 191 180 173 170 202 200 194 194 208 193 201 189 185 192 193 190 193 195 184 192 192 190 188 188 192 181 180 179 184
191 181 189 196 185 188 189 186 178 178 184 197 196 205 204 188 193 174 173 164 195 195 196 199 192 190 202 192 193 194 194 196 192 185 202 190 193 193 198 191 192 198 192
177 182 173 171 185 183 173 183 182 179 188 199 174 199 192 186 170 183 184 185 171 183 192 200 190 212 197 185 198 202 196 197 186 192 185 166 181 176 172 187 187 195 182
184 195 194 195 187 189 187 183 170 207 200 197 192 216 199 202 178 182 172 175 161 164 191 204 193 184 196 196 199 193 196 201 199 207 197 179 184 191 185 182 194 180 198
216 169 212 202 200 211 207 196 228 226 223 215 217 204 207 198 197 207 206 193 192 197 202 191 215 206 195 198 200 198 188 203 187 183 202 202 186 207 205 196 206 188 196
211 227 226 250 255 167 257 241 233 162 228 226 232 219 210 222 224 207 218 199 208 198 196 206 195 220 193 196 199 202 205 201 194 197 203 172 185 192 190 193 184 171 204
229 229 246 260 263 260 258 254 253 238 231 230 227 216 222 232 228 239 226 225 211 212 211 209 208 203 215 193 210 201 190 198 204 202 198 195 191 194 194 209 217 197 205
240 258 260 262 253 250 244 108 253 249 247 247 247 246 245 236 234 230 230 229 226 227 225 215 230 215 209 216 192 206 206 206 198 191 199 198 205 205 219 191 209 208 215
269 268 264 247 256 253 254 252 252 252 258 247 244 251 248 243 243 241 246 250 255 242 236 240 230 228 230 221 211 207 202 213 196 193 204 207 198 213 211 214 212 214 216
269 273 267 262 263 255 254 256 255 253 258 258 259 254 257 262 268 264 264 262 252 248 246 247 249 248 242 232 232 229 221 211 200 199 204 207 209 213 215 208 219 221 233
277 258 142 247 259 263 262 260 266 265 266 272 272 273 279 278 275 276 271 266 270 272 264 261 255 248 248 251 246 236 228 226 223 224 217 216 208 215 218 219 245 261 261
275 263 267 268 269 277 280 284 289 288 315 311 309 335 349 293 288 282 276 280 282 285 285 280 263 269 271 264 260 247 242 237 235 237 244 267 240 262 254 263 268 262 260
279 278 283 286 281 290 292 296 313 328 325 322 329 368 356 348 355 344 351 359 349 369 395 354 300 301 268 259 285 279 272 274 280 280 269 267 268 271 272 262 258 255 256
287 277 283 294 293 297 304 311 313 309 309 316 348 355 333 316 316 319 325 328 329 334 371 344 331 331 313 270 264 259 255 256 249 274 278 266 268 262 255 257 254 263 263
293 297 298 304 303 304 305 300 301 316 343 351 339 329 314 302 297 301 306 316 349 334 371 358 333 327 304 302 282 271 284 279 274 275 260 264 260 252 254 253 245 249 251
301 299 300 299 297 298 299 317 332 335 327 327 356 310 303 294 291 296 334 340 335 326 328 334 310 306 297 287 289 268 276 271 256 262 253 253 254 248 254 255 260 260 251

GFSMA_2pvu_pres_174.txt.gz
Presure
182 168 196 196 202 165 173 161 178 172 197 178 190 191 191 190 183 199 178 182 171 168 176 172 171 181 176 160 153 162 153 154 162 162 165 171 148 171 172 158 174 170 181
162 202 148 171 171 155 174 161 183 182 192 199 187 195 192 194 190 193 185 197 191 169 187 186 180 174 168 168 171 161 176 163 167 172 164 152 163 167 157 161 164 161 177
188 174 160 155 172 145 174 183 178 186 191 194 203 199 198 199 183 185 190 188 194 184 178 187 191 180 179 162 171 171 162 158 168 160 162 163 162 161 168 166 172 170 170
170 181 152 169 171 173 171 184 174 199 208 209 210 200 207 205 186 192 189 195 193 186 186 186 192 192 180 173 173 163 166 172 176 180 177 162 161 179 178 171 164 163 180
172 159 170 184 176 172 185 157 163 192 205 196 219 214 218 202 192 184 195 190 199 197 195 182 188 193 190 182 177 170 174 164 172 166 166 172 171 171 172 154 166 176 170
145 184 179 187 178 185 187 174 194 194 175 190 223 182 196 203 169 183 188 191 196 200 200 190 190 202 191 186 184 179 180 174 170 173 171 177 176 171 166 164 175 173 174
166 183 190 192 176 187 178 153 189 151 155 192 209 166 186 205 179 186 185 201 193 203 177 197 194 186 200 191 185 183 185 179 179 175 188 192 182 172 173 171 166 164 164
122 188 172 174 168 111 201 182 197 193 186 176 200 216 180 191 201 201 189 190 184 195 200 191 198 192 192 190 194 193 190 192 180 170 178 175 173 170 173 161 175 175 183
202 199 150 183 184 189 188 185 193 189 193 155 188 194 159 131 200 195 202 195 188 186 190 195 190 184 202 194 191 186 189 187 187 183 179 176 177 179 185 184 183 183 179
164 106 195 175 184 191 192 191 194 191 191 183 170 156 179 187 172 167 197 196 205 169 180 182 184 193 189 195 182 192 183 187 195 173 179 181 172 184 185 188 185 181 183
206 192 188 188 200 178 187 194 189 181 173 185 179 167 180 187 187 187 180 178 202 199 203 188 157 172 189 193 209 187 191 182 183 188 190 195 202 190 181 180 177 182 176
208 195 205 210 190 183 188 182 184 189 180 175 178 195 198 183 188 185 184 184 181 195 199 176 180 178 187 173 170 195 197 192 196 192 189 187 198 194 193 192 194 195 189
206 218 203 196 187 193 188 186 183 181 182 184 188 183 173 185 185 192 190 177 191 176 183 193 186 180 181 173 194 174 200 190 199 194 184 202 186 188 194 207 196 181 192
208 210 188 187 187 191 196 197 199 198 193 193 193 194 196 208 195 192 198 201 192 203 193 196 163 184 186 190 181 194 176 202 197 184 183 190 195 197 196 191 185 192 196
219 213 201 180 185 186 182 188 183 184 180 203 209 192 210 219 212 207 205 206 201 207 210 207 193 192 202 196 204 187 193 177 208 199 186 193 206 201 205 202 196 185 188
190 197 223 230 235 234 230 193 203 233 229 238 233 233 211 259 250 243 239 229 225 223 229 221 207 203 209 197 196 201 192 194 186 204 204 186 198 194 190 194 198 198 200
212 235 227 238 245 248 240 221 228 247 241 241 248 259 261 255 255 250 241 235 235 226 236 234 224 232 215 205 204 196 196 198 200 194 186 200 200 191 204 188 194 213 200
253 260 260 260 248 257 244 265 253 280 276 266 265 262 258 251 252 246 253 250 245 239 230 224 226 235 233 235 234 226 234 218 210 208 202 206 204 191 203 205 184 182 197
261 281 290 294 298 315 310 296 282 256 268 266 264 258 256 260 256 254 254 255 252 251 249 243 243 243 237 235 234 224 231 230 227 216 235 211 197 211 214 199 212 209 206
281 308 220 289 322 307 295 284 276 270 272 268 264 258 254 255 257 259 255 258 262 261 259 258 258 253 250 245 240 238 236 194 234 240 234 230 230 230 211 217 204 206 208
298 294 295 316 308 295 286 280 273 270 268 272 264 265 264 265 266 266 266 266 269 273 276 274 269 266 261 263 254 258 249 247 241 241 241 235 234 236 232 226 223 227 232
277 266 320 308 297 289 284 288 288 284 206 274 275 287 288 286 285 292 290 296 306 306 305 307 304 310 308 294 274 264 256 252 243 240 248 246 248 244 246 248 245 243 242
295 264 306 299 291 289 291 289 288 284 280 278 284 291 293 299 312 323 331 325 360 360 362 352 346 347 351 366 287 290 290 278 269 267 264 257 253 254 254 258 267 279 273
296 298 297 292 288 294 291 291 293 297 295 310 314 316 319 318 317 320 354 353 344 335 324 330 332 342 327 329 349 366 337 300 267 260 259 258 250 251 257 251 269 260 255
295 293 295 299 306 314 301 303 305 306 303 305 308 309 309 315 315 350 346 332 310 309 316 312 307 315 308 314 322 366 349 331 311 292 292 298 311 285 255 256 253 256 269
296 292 300 310 304 304 296 299 302 303 304 305 311 334 342 341 342 337 331 306 304 293 289 304 305 307 342 329 333 330 317 307 291 294 285 288 277 268 280 274 274 268 269